Location: Banska Bystrica
(48.7330°N, 19.1500°E)
Time: 21:33:15
(UTC+01:00)

ISS - Visible Passes

Search period start: 09 December 2018 00:00
Search period end: 19 December 2018 00:00
Orbit: 401 x 408 km, 51.6° (Epoch: 10 December)

Date Brightness Start Highest point End Pass type
(mag) Time Alt. Az. Time Alt. Az. Time Alt. Az.
09 Dec -3.9 16:46:50 10° WNW 16:50:06 72° NNE 16:53:11 11° ESE visible
09 Dec -1.8 18:23:31 10° W 18:25:52 27° SW 18:25:52 27° SW visible
10 Dec -2.9 17:31:09 10° WNW 17:34:19 46° SSW 17:36:18 19° SE visible
11 Dec -3.6 16:38:53 10° WNW 16:42:09 72° SSW 16:45:24 10° ESE visible
11 Dec -1.0 18:16:12 10° W 18:18:10 15° SW 18:19:41 12° SSW visible
12 Dec -1.5 17:23:26 10° W 17:26:09 24° SW 17:28:52 10° SSE visible
13 Dec -2.3 16:30:58 10° WNW 16:34:03 39° SSW 16:37:07 10° SE visible
14 Dec -0.5 17:16:19 10° WSW 17:17:49 13° SW 17:19:18 10° SSW visible
15 Dec -0.8 16:23:15 10° W 16:25:47 21° SW 16:28:17 10° SSE visible
